User: anonymous   Login
Location: Eindhoven
(51.4416°N, 5.4697°E)
Time: 13:14:20
(UTC+01:00)
Language:

A-11 Canister half - Orbit

View from above orbital plane
View from above orbital plane
View from above satellite
View from above satellite

Ground track
Ground track

The orbit data is extracted from the following two-line orbital elements,

1    53U 60009E   19316.70129065 -.00000013 +00000-0 +70742-3 0  9991
2    53 047.2747 210.4929 0097204 157.0511 203.4662 12.17231783642044
Epoch (UTC): 12 November 2019 16:49:51
Eccentricity: 0.0097204
inclination: 47.2747°
perigee height: 1527 km
apogee height: 1682 km
right ascension of ascending node: 210.4929°
argument of perigee: 157.0511°
revolutions per day: 12.17231783
mean anomaly at epoch: 203.4662°
orbit number at epoch: 64204

The dashed part of the orbit path shows where the satellite is in the earth's shadow,  

DLR